STARLINK-32345, 60920

Orbit data source: Space-Track

STARLINK-32345, 60920 is a payload satellite owned by SpaceX/Seattle (US) in LEO that was launched on Sat, 31 Aug 2024 UTC via an FALCON 9 launch vehicle from the Air Force Eastern Test Range (AFETR). Payload-class satellites include a variety of spacecraft equipped with specific instruments for various scientific and technological missions. These include communications satellites like Starlink; space stations such as the ISS; scientific satellites like the Hubble; Earth observation satellites from companies like Planet Labs, Umbra, and HawkEye 360; GPS; miniature CubeSats for education and research; and military/defense satellites.

Loading next visibility...
Identifier
60920, 2024-154T
Orbit
LEO
Country
Flag of USUS
Related business
Manufacturer
SpaceX/Seattle
Mission
Operational Commercial Communications
Bus & Motor
STARLINK V2M, Unknown motor
Mass
730 kg wet, ~700 kg dry
Launch date (UTC)
2024-08-31 (2 years ago)
Launch vehicle
FALCON 9
Launch site
Air Force Eastern Test Range (AFETR)
Object type
Payload
Rocket body
Debris
Shape & HBR
Box + 2 Pan, 17.7 m
Radar Cross Section
33.884 m², Large (>1 m²)

Expand to show TLE details & history
Last TLE update: 15 hours ago

TLE from 15 hours ago
0 STARLINK-32345
1 60920U 24154T   26129.90769852 -.00000173  00000-0  62787-5 0  9996
2 60920  53.1618 359.7794 0001136  84.5433 275.5697 15.30193763 95716
Epoch: 2026-05-09T21:47Z
TLE epoch observation values (Epoch: 2026-05-09T21:47:05.152Z)
Latitude
-0.00003°
Longitude
165.28952°
Altitude
476.058 km
Speed
7.629 km/s
True Right ascension
23h 59m 07s
True Declination
0° 00' 00"
Sunlit
Object was in daylight at epoch
Visualization orbit readout
Latitude
Unknown
Longitude
Unknown
Altitude
Unknown
Speed
Unknown
Apparent Right ascension
Unknown
Apparent Declination
Unknown
Sunlit
N/A
Visualization observer readout
Local Sidereal Time
20:39:17
Azimuth
Unknown
Elevation
Unknown
Doppler factor
Unknown
Orbital elements
Apogee altitude
476.268 km
Perigee altitude
474.711 km
Semi-major axis
6,853.627 km
Eccentricity
0.00011
Inclination
53.1618°
RAAN
359.7794°
Arg. of periapsis
84.5433°
True anomaly
275.55674°
Mean anomaly
275.5697°
Eccentric anomaly
275.56322°
Mean motion
3.82527 °/min
Orbital period
94.11 mins
BSTAR
0.0000062787
Loading maneuver chart data...
Computing Atmospheric mass density...
Loading historical data...
Loading historical data...
Loading historical data...
Loading historical data...
Loading historical data...
Loading historical data...
Loading historical data...

Documentation

Showing up to 5 results
|